(290952) = 2005 WZ172

Discovered at Mount Lemmon on 2005-11-30 by Mt. Lemmon Survey.

Orbit

Orbit type: Main Belt

Note: WebGL enabled browser required.

epoch2023-02-25.0
epoch JD2460000.5
perihelion date2020-02-22.24980
perihelion JD2458901.74980
argument of perihelion (°)89.80741
ascending node (°)239.08518
inclination (°)6.39134
eccentricity0.0730559
perihelion distance (AU)2.7776647
Tisserand w.r.t. Jupiter3.2
ΔV w.r.t. Earth (km/sec)10.6
semimajor axis (AU)2.9965826
mean anomaly (°)208.76776
mean daily motion (°/day)0.19000480
aphelion distance (AU)3.216
period (years)5.19
P-vector [x]0.85086810
P-vector [y]-0.51536173
P-vector [z]-0.10210661
Q-vector [x]0.51662604
Q-vector [y]0.78540946
Q-vector [z]0.34092450
absolute magnitude16.19
phase slope0.15
uncertainty0
referenceMPO 745323
observations used251
oppositions15
arc length (days)7263
first opposition used2003
last opposition used2023
residual rms (arc-secs)0.65
perturbers coarse indicatorM-v
perturbers precise indicator003Ek
first observation date used2003-06-02.0
last observation date used2023-04-21.0
computer nameMPCLINUX
JD of orbit computation2456847.818675
perihelion JD uncertainty (days)1.9595E-04
argument of perihelion uncertainty (°)5.1152E-05
ascending node uncertainty (°)3.4033E-05
inclination uncertainty (°)4.5461E-06
eccentricity uncertainty 3.9908E-08
perihelion distance uncertainty (AU)1.3129E-07
Minimum Orbit Intersection Distances (in AU)
for orbit epoch: 2460000.5, reference: E2023-HD3
Mercury2.37042
Venus2.06345
Earth1.77473
Mars1.41843
Jupiter2.02756
Saturn5.9441
Uranus15.2634
Neptune26.9371

Observations

256 total observations over interval: 2003 06 02.11348 – 2023 04 21.391483
These data are available for download (format description).

Date (UT) J2000 RA J2000 Dec Magn Location Ref
2003 06 02.11348 15 16 33.42 -18 22 46.1 19.5 R 807 – Cerro Tololo Observatory, La Serena MPS 167117
2003 06 02.17650 15 16 30.70 -18 22 28.6   807 – Cerro Tololo Observatory, La Serena MPS 167117
2004 08 22.24822 22 06 33.53 -00 54 50.1 19.9 V 691 – Steward Observatory, Kitt Peak-Spacewatch MPS 167117
2004 08 22.25372 22 06 33.27 -00 54 51.4 19.9 V 691 – Steward Observatory, Kitt Peak-Spacewatch MPS 167117
2004 08 22.27517 22 06 32.25 -00 54 56.9 19.8 V 691 – Steward Observatory, Kitt Peak-Spacewatch MPS 167117
2004 08 22.28071 22 06 31.99 -00 54 58.2 19.7 V 691 – Steward Observatory, Kitt Peak-Spacewatch MPS 167117
2004 08 22.30270 22 06 30.95 -00 55 03.8 19.8 V 691 – Steward Observatory, Kitt Peak-Spacewatch MPS 167117
2004 08 22.30794 22 06 30.70 -00 55 05.0 19.8 V 691 – Steward Observatory, Kitt Peak-Spacewatch MPS 167117
2004 09 17.11650 21 49 08.76 -03 02 19.1 20.2 V 691 – Steward Observatory, Kitt Peak-Spacewatch MPS 167117
2004 09 17.14305 21 49 07.92 -03 02 27.0 20.6 V 691 – Steward Observatory, Kitt Peak-Spacewatch MPS 167117
2004 09 17.17027 21 49 07.07 -03 02 35.3 20.2 V 691 – Steward Observatory, Kitt Peak-Spacewatch MPS 167117
2005 10 25.46087 04 58 42.67 +22 13 12.5 20.4 V G96 – Mt. Lemmon Survey MPS 167117
2005 10 25.46626 04 58 42.52 +22 13 11.6 20.7 V G96 – Mt. Lemmon Survey MPS 167117
2005 10 25.47168 04 58 42.42 +22 13 10.8 20.4 V G96 – Mt. Lemmon Survey MPS 167117
2005 10 25.47705 04 58 42.31 +22 13 10.3 20.4 V G96 – Mt. Lemmon Survey MPS 167117
2005 11 30.29346 04 33 40.86 +20 18 23.7 19.7 V G96 – Mt. Lemmon Survey MPS 154072
2005 11 30.30017 04 33 40.50 +20 18 22.2 19.6 V G96 – Mt. Lemmon Survey MPS 154072
2005 11 30.30679 04 33 40.10 +20 18 20.9 20.1 V G96 – Mt. Lemmon Survey MPS 154072
2005 11 30.31355 04 33 39.78 +20 18 19.5 20.1 V G96 – Mt. Lemmon Survey MPS 154072
2005 12 01.24666 04 32 49.75 +20 14 50.5 20.1 R 695 – Kitt Peak MPS 159919
2005 12 01.30348 04 32 46.61 +20 14 37.9   695 – Kitt Peak MPS 159919
2005 12 01.36119 04 32 43.43 +20 14 24.9   695 – Kitt Peak MPS 159919
2005 12 04.30228 04 30 06.22 +20 03 26.8 19.5 V G96 – Mt. Lemmon Survey MPS 154072
2005 12 04.30726 04 30 05.90 +20 03 25.4 19.1 V G96 – Mt. Lemmon Survey MPS 154072
2005 12 04.31227 04 30 05.72 +20 03 24.8 18.9 V G96 – Mt. Lemmon Survey MPS 154072
2005 12 04.31730 04 30 05.32 +20 03 23.8 18.7 V G96 – Mt. Lemmon Survey MPS 154072
2005 12 04.42962 04 29 59.28 +20 02 58.4 19.6 V G96 – Mt. Lemmon Survey MPS 156152
2005 12 04.43140 04 29 59.13 +20 02 58.0 19.8 V G96 – Mt. Lemmon Survey MPS 156152
2005 12 04.43318 04 29 59.06 +20 02 57.2 19.8 V G96 – Mt. Lemmon Survey MPS 156152
2005 12 04.43497 04 29 58.99 +20 02 57.1 19.8 V G96 – Mt. Lemmon Survey MPS 156152
2005 12 04.46264 04 29 57.48 +20 02 50.8 20.4 V G96 – Mt. Lemmon Survey MPS 156152
2005 12 04.46352 04 29 57.40 +20 02 50.2 19.4 V G96 – Mt. Lemmon Survey MPS 156152
2005 12 04.46634 04 29 57.26 +20 02 49.8 20.2 V G96 – Mt. Lemmon Survey MPS 156152
2005 12 04.46723 04 29 57.19 +20 02 49.7 19.4 V G96 – Mt. Lemmon Survey MPS 156152
2005 12 04.47016 04 29 57.04 +20 02 49.1 20.3 V G96 – Mt. Lemmon Survey MPS 156152
2005 12 04.47104 04 29 57.01 +20 02 48.8 19.8 V G96 – Mt. Lemmon Survey MPS 156152
2005 12 04.47391 04 29 56.86 +20 02 48.5 20.2 V G96 – Mt. Lemmon Survey MPS 156152
2005 12 04.47480 04 29 56.83 +20 02 47.9 19.8 V G96 – Mt. Lemmon Survey MPS 156152
2005 12 29.23500 04 11 32.24 +18 41 39.8 20.4 V G96 – Mt. Lemmon Survey MPS 163867
2005 12 29.24390 04 11 31.95 +18 41 38.4 20.1 V G96 – Mt. Lemmon Survey MPS 163867
2005 12 29.25315 04 11 31.63 +18 41 36.9 20.1 V G96 – Mt. Lemmon Survey MPS 163867
2005 12 29.26242 04 11 31.34 +18 41 35.4 20.4 V G96 – Mt. Lemmon Survey MPS 163867
2009 08 17.19801 20 44 18.86 -08 03 34.9 20.2 V 691 – Steward Observatory, Kitt Peak-Spacewatch MPS 291760
2009 08 17.21173 20 44 18.26 -08 03 37.8 20.1 V 691 – Steward Observatory, Kitt Peak-Spacewatch MPS 291760
2009 08 17.22278 20 44 17.76 -08 03 40.1 20.1 V 691 – Steward Observatory, Kitt Peak-Spacewatch MPS 291760
2009 08 19.18177 20 42 53.98 -08 10 28.1 19.9 V 691 – Steward Observatory, Kitt Peak-Spacewatch MPS 291760
2009 08 19.19308 20 42 53.48 -08 10 30.5 20.1 V 691 – Steward Observatory, Kitt Peak-Spacewatch MPS 291760
2009 08 19.20463 20 42 52.97 -08 10 32.5 20.0 V 691 – Steward Observatory, Kitt Peak-Spacewatch MPS 291760
2010 09 11.42904 03 49 20.85 +22 31 51.2 21.2 V G96 – Mt. Lemmon Survey MPS 347990
2010 09 11.43486 03 49 20.96 +22 31 51.2 21.0 V G96 – Mt. Lemmon Survey MPS 347990
2010 09 11.44069 03 49 21.07 +22 31 51.9 21.2 V G96 – Mt. Lemmon Survey MPS 347990
2010 09 11.44652 03 49 21.21 +22 31 52.2 20.8 V G96 – Mt. Lemmon Survey MPS 347990
2010 10 28.41856 03 40 35.32 +21 06 24.0 20.2 V G96 – Mt. Lemmon Survey MPS 351247
2010 10 28.42376 03 40 35.07 +21 06 23.3 19.6 V G96 – Mt. Lemmon Survey MPS 351247
2010 10 28.42892 03 40 34.93 +21 06 22.3 19.6 V G96 – Mt. Lemmon Survey MPS 351247
2010 10 28.43414 03 40 34.64 +21 06 20.5 20.1 V G96 – Mt. Lemmon Survey MPS 351247
2010 10 30.542722 03 39 02.394 +20 57 35.25 20.54 r F51 – Pan-STARRS 1, Haleakala MPS 365575
2010 10 30.554577 03 39 01.851 +20 57 32.07 20.54 r F51 – Pan-STARRS 1, Haleakala MPS 365575
2010 11 02.20277 03 37 00.84 +20 45 59.2   691 – Steward Observatory, Kitt Peak-Spacewatch MPS 353794
2010 11 02.22048 03 37 00.04 +20 45 55.2   691 – Steward Observatory, Kitt Peak-Spacewatch MPS 353794
2010 11 02.23817 03 36 59.16 +20 45 50.0   691 – Steward Observatory, Kitt Peak-Spacewatch MPS 353794
2010 11 03.547286 03 35 56.968 +20 39 57.75 21.08 g F51 – Pan-STARRS 1, Haleakala MPS 365575
2010 11 03.558901 03 35 56.401 +20 39 54.49 20.95 g F51 – Pan-STARRS 1, Haleakala MPS 365575
2010 11 07.480512 03 32 44.740 +20 21 34.26 20.52 w F51 – Pan-STARRS 1, Haleakala MPS 365575
2010 11 07.493998 03 32 44.041 +20 21 30.41 20.60 w F51 – Pan-STARRS 1, Haleakala MPS 365575
2010 11 07.508717 03 32 43.280 +20 21 26.08 20.55 w F51 – Pan-STARRS 1, Haleakala MPS 365575
2010 11 07.522189 03 32 42.582 +20 21 22.08 20.55 w F51 – Pan-STARRS 1, Haleakala MPS 365575
2010 11 11.34308 03 29 29.47 +20 02 38.9 20.2 V G96 – Mt. Lemmon Survey MPS 355376
2010 11 11.34881 03 29 29.18 +20 02 37.1 20.1 V G96 – Mt. Lemmon Survey MPS 355376
2010 11 11.35455 03 29 28.86 +20 02 35.4 20.1 V G96 – Mt. Lemmon Survey MPS 355376
2010 11 11.36035 03 29 28.57 +20 02 33.6 20.1 V G96 – Mt. Lemmon Survey MPS 355376
2010 11 14.16210 03 27 05.23 +19 48 27.4 19.8 V 691 – Steward Observatory, Kitt Peak-Spacewatch MPS 357439
2010 11 14.17981 03 27 04.24 +19 48 21.9 19.9 V 691 – Steward Observatory, Kitt Peak-Spacewatch MPS 357439
2010 11 14.19753 03 27 03.37 +19 48 16.9 20.2 V 691 – Steward Observatory, Kitt Peak-Spacewatch MPS 357439
2010 12 02.28529 03 12 27.82 +18 16 27.6 20.9 V 703 – Catalina Sky Survey MPS 358937
2010 12 02.29046 03 12 27.75 +18 16 25.0 20.3 V 703 – Catalina Sky Survey MPS 358937
2010 12 02.29565 03 12 27.50 +18 16 26.1 20.1 V 703 – Catalina Sky Survey MPS 358937
2010 12 02.30080 03 12 27.25 +18 16 22.7 20.1 V 703 – Catalina Sky Survey MPS 358937
2010 12 12.14241 03 06 20.73 +17 32 27.0 20.3 V G96 – Mt. Lemmon Survey MPS 358937
2010 12 12.14938 03 06 20.48 +17 32 25.3 20.3 V G96 – Mt. Lemmon Survey MPS 358937
2010 12 12.15637 03 06 20.26 +17 32 23.6 20.4 V G96 – Mt. Lemmon Survey MPS 358937
2010 12 12.16328 03 06 20.05 +17 32 21.9 20.4 V G96 – Mt. Lemmon Survey MPS 358937
2011 01 26.13924 03 06 17.02 +16 23 32.1 22.0 V G96 – Mt. Lemmon Survey MPS 367022
2011 01 26.14449 03 06 17.24 +16 23 32.7 21.2 V G96 – Mt. Lemmon Survey MPS 367022
2011 01 26.14971 03 06 17.35 +16 23 33.0 21.7 V G96 – Mt. Lemmon Survey MPS 367022
2011 01 26.15493 03 06 17.53 +16 23 33.1 21.2 V G96 – Mt. Lemmon Survey MPS 367022
2012 02 01.34823 08 48 22.50 +08 42 07.1 20.5 V G96 – Mt. Lemmon Survey MPS 411484
2012 02 01.35630 08 48 22.06 +08 42 07.9 20.4 V G96 – Mt. Lemmon Survey MPS 411484
2012 02 01.36442 08 48 21.67 +08 42 09.7 20.5 V G96 – Mt. Lemmon Survey MPS 411484
2012 02 01.37256 08 48 21.27 +08 42 11.4 20.4 V G96 – Mt. Lemmon Survey MPS 411484
2013 04 09.44688 13 30 43.967 -15 16 36.57 20.5 w F51 – Pan-STARRS 1, Haleakala MPS 463898
